Weather History for Bridgeport, CT

Change the Weather History Date:

Saturday, September 28, 2013

  Actual Average Record
Temperature  
Mean Temperature 62 °F 62 °F  
Max Temperature 72 °F 70 °F 81 °F (1959)
Min Temperature 52 °F 53 °F 36 °F (1957)
Degree Days  
Heating Degree Days 3 5  
Month to date heating degree days 71 54  
Since 1 July heating degree days 71 58  
Cooling Degree Days 0 1  
Month to date cooling degree days 96 96  
Year to date cooling degree days 981 814  
Growing Degree Days 12 (Base 50)    
Moisture  
Dew Point 52 °F    
Average Humidity 69    
Maximum Humidity 89    
Minimum Humidity 49    
Precipitation  
Precipitation 0.00 in 0.12 in 4.80 in (2012)
Month to date precipitation 2.72 3.22  
Year to date precipitation 29.50 32.12  
Snow  
Snow 0.00 in 0.00 in - ()
Month to date snowfall 0.0 0.0  
Since 1 July snowfall 0.0 0.0  
Snow Depth 0.00 in    
Sea Level Pressure  
Sea Level Pressure 30.28 in    
Wind  
Wind Speed 5 mph (NE)    
Max Wind Speed 12 mph    
Max Gust Speed 14 mph    
Visibility 10 miles    
Events      
T = Trace of Precipitation, MM = Missing Value Source: NWS Daily Summary

Daily Weather History Graph

Daily Weather History Graph

Search for Another Location

Airport:

Trip Planner

Search our weather history database for the weather conditions in past years. The results will help you decide how hot, cold, wet, or windy it might be!

Date:

Astronomy

Sep. 28, 2013 Rise Set
Actual Time 6:46 AM EDT 6:39 PM EDT
Civil Twilight 6:18 AM EDT 7:06 PM EDT
Nautical Twilight 5:46 AM EDT 7:38 PM EDT
Astronomical Twilight 5:14 AM EDT 8:10 PM EDT
Moon 12:28 AM EDT (9/28) 2:58 PM EDT (9/28)
Length of Visible Light 12h 47m
Length of Day
11h 52m
Last Quarter, 36% of the Moon is Illuminated
Sep 28
Last Quarter
Oct 4
New
Oct 11
First Quarter
Oct 18
Full
Oct 26
Last Quarter

Hourly Weather History & Observations

Time (EDT) Temp. Dew Point Humidity Pressure Visibility Wind Dir Wind Speed Gust Speed Precip Events Conditions
12:52 AM 57.0 °F 51.1 °F 81% 30.27 in 10.0 mi North 5.8 mph - N/A   Clear
1:52 AM 55.9 °F 51.1 °F 84% 30.27 in 10.0 mi North 5.8 mph - N/A   Clear
2:52 AM 54.0 °F 50.0 °F 86% 30.27 in 10.0 mi North 4.6 mph - N/A   Clear
3:52 AM 54.0 °F 50.0 °F 86% 30.27 in 10.0 mi North 5.8 mph - N/A   Clear
4:52 AM 54.0 °F 50.0 °F 86% 30.27 in 10.0 mi North 8.1 mph - N/A   Clear
5:52 AM 53.1 °F 48.9 °F 86% 30.29 in 10.0 mi North 8.1 mph - N/A   Clear
6:52 AM 53.1 °F 48.9 °F 86% 30.30 in 10.0 mi North 8.1 mph - N/A   Clear
7:52 AM 55.9 °F 50.0 °F 80% 30.31 in 10.0 mi North 8.1 mph - N/A   Clear
8:52 AM 60.1 °F 52.0 °F 75% 30.31 in 10.0 mi North 10.4 mph - N/A   Clear
9:52 AM 64.0 °F 52.0 °F 65% 30.33 in 10.0 mi NNE 9.2 mph - N/A   Clear
10:52 AM 69.1 °F 53.1 °F 57% 30.33 in 10.0 mi Variable 6.9 mph - N/A   Clear
11:52 AM 71.1 °F 52.0 °F 51% 30.32 in 10.0 mi East 9.2 mph - N/A   Clear
12:52 PM 71.1 °F 52.0 °F 51% 30.31 in 10.0 mi ESE 6.9 mph - N/A   Clear
1:52 PM 71.1 °F 51.1 °F 49% 30.29 in 10.0 mi East 8.1 mph - N/A   Clear
2:52 PM 71.1 °F 52.0 °F 51% 30.28 in 10.0 mi SE 9.2 mph - N/A   Clear
3:52 PM 70.0 °F 53.1 °F 55% 30.27 in 10.0 mi SSE 8.1 mph - N/A   Clear
4:52 PM 70.0 °F 53.1 °F 55% 30.26 in 10.0 mi SSE 6.9 mph - N/A   Clear
5:52 PM 69.1 °F 54.0 °F 58% 30.26 in 10.0 mi SE 3.5 mph - N/A   Clear
6:52 PM 66.9 °F 53.1 °F 61% 30.26 in 10.0 mi Calm Calm - N/A   Clear
7:52 PM 64.0 °F 53.1 °F 67% 30.26 in 10.0 mi Calm Calm - N/A   Clear
8:52 PM 63.0 °F 54.0 °F 72% 30.26 in 10.0 mi Calm Calm - N/A   Clear
9:52 PM 60.1 °F 55.0 °F 83% 30.27 in 10.0 mi Calm Calm - N/A   Clear
10:52 PM 60.1 °F 55.0 °F 83% 30.26 in 10.0 mi Calm Calm - N/A   Clear
11:52 PM 59.0 °F 55.0 °F 87% 30.25 in 10.0 mi Calm Calm - N/A   Clear